Home > Weather > Campinas > Past weeks

Flag for Brazil Past Weather in Campinas, São Paulo, Brazil — Yesterday and Last 2 Weeks

Now
79 °F

Passing clouds.


Feels Like: 79 °F
Forecast: 57 / 79 °F
Wind: 6 mph from South

Location: Campinas Aeroporto

Current Time: Jul 30, 2016 at 4:04:42 PM

Latest Report: Jul 30, 2016 at 3:00 PM


Visibility: N/A

Pressure: 30.18 "Hg (27.91 "Hg at 686m altitude)

Humidity: 34%

Dew Point: 48 °F

Location of CampinasLocation

Past Weather in Campinas — Graph

°F

Campinas Temperature Yesterday

Maximum temperature yesterday: 77 °F (at 3:00 PM)
Minimum temperature yesterday: 57 °F (at 12:00 AM)
Average temperature yesterday: 63 °F

High & Low Weather Summary for the Past Weeks

 TemperatureHumidityPressure
High86 °F (Jul 15, 3:00 PM)100% (Jul 16, 8:00 PM)30.30 "Hg (Jul 16, 8:00 PM)
Low45 °F (Jul 18, 4:00 AM)22% (Jul 15, 3:00 PM)29.89 "Hg (Jul 16, 5:00 AM)
Average63 °F62%30.14 "Hg
* Reported Jul 15 3:00 PM — Jul 30 3:00 PM, Campinas, Weather by CustomWeather, © 2016

Note: Actual official high and low records may vary slightly from our data, if they occured in-between our weather recording intervals... More about our weather records

Advertising

Campinas Weather History for the Previous 24 Hours

Scroll right to see more
 ConditionsComfort  
Time TempWeatherWind HumidityBarometerVisibility
3:00 PM
Sat, Jul 30
79 °FPassing clouds.6 mph34%30.18 "HgN/A
2:00 PM79 °FPassing clouds.2 mph37%30.21 "HgN/A
1:00 PM77 °FPassing clouds.3 mph42%30.24 "HgN/A
12:00 PM73 °FPassing clouds.5 mph50%30.27 "HgN/A
11:00 AM72 °FSunny.7 mph53%30.30 "Hg10 mi
10:00 AM66 °FSunny.7 mph64%30.30 "Hg10 mi
9:00 AM63 °FClear.9 mph73%30.30 "Hg4 mi
8:00 AM59 °FClear.12 mph82%30.27 "Hg4 mi
7:00 AM57 °FClear.12 mph88%30.24 "Hg4 mi
6:00 AM57 °FSunny.12 mph88%30.24 "Hg10 mi
5:00 AM57 °FClear.12 mph88%30.21 "Hg10 mi
4:00 AM57 °FClear.13 mph88%30.21 "Hg10 mi
3:00 AM57 °FClear.15 mph88%30.21 "Hg10 mi
2:00 AM59 °FClear.16 mph82%30.24 "Hg10 mi
1:00 AM59 °FClear.16 mph77%30.21 "Hg10 mi
12:00 AM59 °FClear.15 mph77%30.24 "Hg10 mi
11:00 PM
Fri, Jul 29
59 °FClear.14 mph82%30.24 "Hg10 mi
10:00 PM59 °FClear.15 mph82%30.24 "Hg10 mi
9:00 PM59 °FClear.16 mph82%30.21 "Hg10 mi
8:00 PM61 °FClear.16 mph77%30.21 "Hg10 mi
7:00 PM61 °FClear.15 mph77%30.18 "Hg10 mi
6:00 PM64 °FClear.14 mph68%30.18 "Hg10 mi
5:00 PM72 °FClear.12 mph50%30.15 "Hg10 mi
4:00 PM75 °FSunny.9 mph44%30.15 "Hg10 mi
Weather by CustomWeather, © 2016

See weather overviewHow to use our weather pages